Time,TemperatureF,DewpointF,PressureIn,WindDirection,WindDirectionDegrees,WindSpeedMPH,WindSpeedGustMPH,Humidity,HourlyPrecipIn,Conditions,Clouds,dailyrainin,SolarRadiationWatts/m^2,SoftwareType,DateUTC
2013-08-26 00:00:00,70.8,63.2,29.85,ESE,107,1.2,1.2,77,0.00,RA,,0.00,0.0,WeatherDisplay:10.37,2013-08-25 22:00:00,
2013-08-26 00:05:00,70.8,62.9,29.85,ESE,104,2.3,2.3,76,0.00,RA,,0.00,0.0,WeatherDisplay:10.37,2013-08-25 22:05:00,
2013-08-26 00:10:00,70.7,62.8,29.85,SE,135,3.5,3.5,76,0.00,,,0.00,0.0,WeatherDisplay:10.37,2013-08-25 22:10:00,
2013-08-26 00:15:00,70.4,62.5,29.85,SW,219,2.3,2.3,76,0.00,,,0.00,0.0,WeatherDisplay:10.37,2013-08-25 22:15:00,
2013-08-26 00:20:00,70.3,62.4,29.85,ESE,112,5.8,5.8,76,0.00,,,0.00,0.0,WeatherDisplay:10.37,2013-08-25 22:20:00,
2013-08-26 00:25:00,70.5,62.9,29.85,WSW,246,3.5,3.5,77,0.00,,,0.00,0.0,WeatherDisplay:10.37,2013-08-25 22:25:00,
2013-08-26 00:30:00,70.9,63.3,29.85,South,177,3.5,3.5,77,0.00,,,0.00,0.0,WeatherDisplay:10.37,2013-08-25 22:30:00,
2013-08-26 00:35:00,71.1,63.5,29.85,SSW,194,6.9,6.9,77,0.00,,,0.00,0.0,WeatherDisplay:10.37,2013-08-25 22:35:00,
2013-08-26 00:40:00,71.5,63.5,29.85,SW,216,3.5,3.5,76,0.00,,,0.00,0.0,WeatherDisplay:10.37,2013-08-25 22:40:00,
2013-08-26 00:45:00,71.7,63.7,29.85,ENE,62,4.6,4.6,76,0.00,,,0.00,0.0,WeatherDisplay:10.37,2013-08-25 22:45:00,
2013-08-26 00:50:00,71.8,63.8,29.85,NW,320,1.2,1.2,76,0.00,,,0.00,0.0,WeatherDisplay:10.37,2013-08-25 22:50:00,
2013-08-26 00:55:00,71.9,63.9,29.84,SW,234,3.5,3.5,76,0.00,,,0.00,0.0,WeatherDisplay:10.37,2013-08-25 22:55:00,
2013-08-26 01:00:00,72.0,63.6,29.84,SE,129,2.3,2.3,75,0.00,,,0.00,0.0,WeatherDisplay:10.37,2013-08-25 23:00:00,
2013-08-26 01:05:00,72.1,63.7,29.84,SW,236,3.5,3.5,75,0.00,,,0.00,0.0,WeatherDisplay:10.37,2013-08-25 23:05:00,
2013-08-26 01:10:00,72.2,63.8,29.84,East,92,2.3,2.3,75,0.00,SCT,,0.00,0.0,WeatherDisplay:10.37,2013-08-25 23:10:00,
2013-08-26 01:15:00,72.3,63.9,29.84,SW,232,3.5,3.5,75,0.00,SCT,,0.00,0.0,WeatherDisplay:10.37,2013-08-25 23:15:00,
2013-08-26 01:20:00,72.4,64.4,29.84,WNW,285,3.5,3.5,76,0.00,SCT,,0.00,0.0,WeatherDisplay:10.37,2013-08-25 23:20:00,
2013-08-26 01:25:00,72.5,64.5,29.84,East,88,2.3,2.3,76,0.00,SCT,,0.00,0.0,WeatherDisplay:10.37,2013-08-25 23:25:00,
2013-08-26 01:30:00,72.6,64.6,29.84,WSW,245,2.3,2.3,76,0.00,SCT,,0.00,0.0,WeatherDisplay:10.37,2013-08-25 23:30:00,
2013-08-26 01:35:00,72.7,64.7,29.84,NW,316,3.5,3.5,76,0.00,SCT,,0.00,0.0,WeatherDisplay:10.37,2013-08-25 23:35:00,
2013-08-26 01:40:00,72.7,64.7,29.83,ENE,67,2.3,2.3,76,0.00,SCT,,0.00,0.0,WeatherDisplay:10.37,2013-08-25 23:40:00,
2013-08-26 01:45:00,72.7,64.7,29.83,WSW,257,3.5,3.5,76,0.00,SCT,,0.00,0.0,WeatherDisplay:10.37,2013-08-25 23:45:00,
2013-08-26 01:51:00,72.8,64.8,29.83,NNE,17,3.5,3.5,76,0.00,SCT,,0.00,0.0,WeatherDisplay:10.37,2013-08-25 23:51:00,
2013-08-26 01:56:00,72.8,64.8,29.83,East,88,3.5,3.5,76,0.00,SCT,,0.00,0.0,WeatherDisplay:10.37,2013-08-25 23:56:00,
2013-08-26 02:01:00,72.7,64.7,29.83,SE,136,2.0,2.0,76,0.00,SCT,,0.00,0.0,WeatherDisplay:10.37,2013-08-26 00:01:00,
2013-08-26 02:06:00,72.6,64.6,29.83,WSW,245,3.5,3.5,76,0.00,SCT,,0.00,0.0,WeatherDisplay:10.37,2013-08-26 00:06:00,
2013-08-26 02:11:00,72.7,64.7,29.83,South,175,3.5,3.5,76,0.00,SCT,,0.00,0.0,WeatherDisplay:10.37,2013-08-26 00:11:00,
2013-08-26 02:16:00,72.6,65.0,29.83,ENE,64,3.5,3.5,77,0.00,SCT,,0.00,0.0,WeatherDisplay:10.37,2013-08-26 00:16:00,
2013-08-26 02:21:00,72.5,64.9,29.83,NW,321,2.3,2.3,77,0.00,SCT,,0.00,0.0,WeatherDisplay:10.37,2013-08-26 00:21:00,
2013-08-26 02:26:00,72.4,64.8,29.82,NNW,331,3.5,3.5,77,0.00,SCT,,0.00,0.0,WeatherDisplay:10.37,2013-08-26 00:26:00,
2013-08-26 02:31:00,72.6,65.3,29.82,NW,317,3.5,3.5,78,0.00,SCT,,0.00,0.0,WeatherDisplay:10.37,2013-08-26 00:31:00,
2013-08-26 02:36:00,72.7,65.1,29.83,SE,140,1.2,1.2,77,0.00,SCT,,0.00,0.0,WeatherDisplay:10.37,2013-08-26 00:36:00,
2013-08-26 02:41:00,72.7,65.4,29.82,WSW,245,4.6,4.6,78,0.00,SCT,,0.00,0.0,WeatherDisplay:10.37,2013-08-26 00:41:00,
2013-08-26 02:46:00,72.7,65.4,29.83,West,279,3.5,3.5,78,0.00,SCT,,0.00,0.0,WeatherDisplay:10.37,2013-08-26 00:46:00,
2013-08-26 02:51:00,72.8,65.5,29.83,SSW,212,3.5,3.5,78,0.00,SCT,,0.00,0.0,WeatherDisplay:10.37,2013-08-26 00:51:00,
2013-08-26 02:56:00,72.9,65.3,29.83,North,5,3.5,3.5,77,0.00,SCT,,0.00,0.0,WeatherDisplay:10.37,2013-08-26 00:56:00,
2013-08-26 03:01:00,72.9,65.3,29.83,SW,227,3.5,3.5,77,0.00,SCT,,0.00,0.0,WeatherDisplay:10.37,2013-08-26 01:01:00,
2013-08-26 03:06:00,73.0,65.4,29.83,ENE,78,6.9,6.9,77,0.00,SCT,,0.00,0.0,WeatherDisplay:10.37,2013-08-26 01:06:00,
2013-08-26 03:11:00,73.1,65.5,29.83,SSE,148,4.6,4.6,77,0.00,SCT,,0.00,0.0,WeatherDisplay:10.37,2013-08-26 01:11:00,
2013-08-26 03:16:00,73.1,65.5,29.83,SSW,200,3.5,3.5,77,0.00,SCT,,0.00,0.0,WeatherDisplay:10.37,2013-08-26 01:16:00,
2013-08-26 03:21:00,73.2,65.6,29.83,WSW,252,5.8,5.8,77,0.00,SCT,,0.00,0.0,WeatherDisplay:10.37,2013-08-26 01:21:00,
2013-08-26 03:26:00,73.2,65.6,29.83,SW,234,2.3,2.3,77,0.00,SCT,,0.00,0.0,WeatherDisplay:10.37,2013-08-26 01:26:00,
2013-08-26 03:31:00,73.2,65.6,29.83,SSW,204,3.5,3.5,77,0.00,SCT,,0.00,0.0,WeatherDisplay:10.37,2013-08-26 01:31:00,
2013-08-26 03:36:00,73.2,65.6,29.83,NW,309,4.6,4.6,77,0.00,SCT,,0.00,0.0,WeatherDisplay:10.37,2013-08-26 01:36:00,
2013-08-26 03:41:00,73.1,65.5,29.83,NNE,15,3.5,3.5,77,0.00,SCT,,0.00,0.0,WeatherDisplay:10.37,2013-08-26 01:41:00,
2013-08-26 03:46:00,73.2,65.6,29.83,NNW,345,3.5,3.5,77,0.00,SCT,,0.00,0.0,WeatherDisplay:10.37,2013-08-26 01:46:00,
2013-08-26 03:51:00,73.3,65.7,29.82,East,95,2.3,2.3,77,0.00,SCT,,0.00,0.0,WeatherDisplay:10.37,2013-08-26 01:51:00,
2013-08-26 03:56:00,73.3,65.7,29.83,NNE,18,5.8,5.8,77,0.00,SCT,,0.00,0.0,WeatherDisplay:10.37,2013-08-26 01:56:00,
2013-08-26 04:01:00,73.3,66.0,29.82,NE,38,6.0,6.0,78,0.00,SCT,,0.00,0.0,WeatherDisplay:10.37,2013-08-26 02:01:00,
2013-08-26 04:06:00,73.4,66.1,29.82,North,10,1.2,0.0,78,0.00,SCT,,0.00,0.0,WeatherDisplay:10.37,2013-08-26 02:06:00,
2013-08-26 04:11:00,73.3,66.0,29.82,WSW,239,1.2,1.2,78,0.00,SCT,,0.00,0.0,WeatherDisplay:10.37,2013-08-26 02:11:00,
2013-08-26 04:16:00,73.3,66.0,29.83,NNW,329,0.0,0.0,78,0.00,SCT,,0.00,0.0,WeatherDisplay:10.37,2013-08-26 02:16:00,
2013-08-26 04:21:00,73.3,66.0,29.83,SW,228,1.2,1.2,78,0.00,SCT,,0.00,0.0,WeatherDisplay:10.37,2013-08-26 02:21:00,
2013-08-26 04:26:00,73.1,65.8,29.83,SW,228,0.0,0.0,78,0.00,SCT,,0.00,0.0,WeatherDisplay:10.37,2013-08-26 02:26:00,
2013-08-26 04:31:00,73.0,65.7,29.83,SW,228,0.0,0.0,78,0.00,SCT,,0.00,0.0,WeatherDisplay:10.37,2013-08-26 02:31:00,
2013-08-26 04:36:00,72.9,66.0,29.83,SW,228,0.0,0.0,79,0.00,SCT,,0.00,0.0,WeatherDisplay:10.37,2013-08-26 02:36:00,
2013-08-26 04:41:00,72.8,65.9,29.83,ESE,103,1.2,1.2,79,0.00,SCT,,0.00,0.0,WeatherDisplay:10.37,2013-08-26 02:41:00,
2013-08-26 04:46:00,72.6,65.7,29.83,SE,125,0.0,0.0,79,0.00,SCT,,0.00,0.0,WeatherDisplay:10.37,2013-08-26 02:46:00,
2013-08-26 04:51:00,72.5,66.0,29.83,WSW,254,0.0,0.0,80,0.00,SCT,,0.00,0.0,WeatherDisplay:10.37,2013-08-26 02:51:00,
2013-08-26 04:56:00,72.4,66.2,29.83,NE,41,1.2,1.2,81,0.00,SCT,,0.00,0.0,WeatherDisplay:10.37,2013-08-26 02:56:00,
2013-08-26 05:01:00,72.2,66.0,29.83,ENE,57,3.5,3.5,81,0.00,SCT,,0.00,0.0,WeatherDisplay:10.37,2013-08-26 03:01:00,
2013-08-26 05:06:00,72.3,66.5,29.83,SSW,207,1.2,0.0,82,0.00,SCT,,0.00,0.0,WeatherDisplay:10.37,2013-08-26 03:06:00,
2013-08-26 05:11:00,72.4,66.2,29.83,NNE,26,2.3,0.0,81,0.00,SCT,,0.00,0.0,WeatherDisplay:10.37,2013-08-26 03:11:00,
2013-08-26 05:16:00,72.6,66.4,29.83,NNE,12,2.3,2.3,81,0.00,SCT,,0.00,0.0,WeatherDisplay:10.37,2013-08-26 03:16:00,
2013-08-26 05:21:00,72.9,67.1,29.83,NE,34,3.5,3.5,82,0.00,SCT,,0.00,0.0,WeatherDisplay:10.37,2013-08-26 03:21:00,
2013-08-26 05:26:00,73.0,66.8,29.84,North,355,2.3,2.3,81,0.00,SCT,,0.00,0.0,WeatherDisplay:10.37,2013-08-26 03:26:00,
2013-08-26 05:31:00,73.1,66.9,29.83,NNE,26,1.2,1.2,81,0.00,SCT,,0.00,0.0,WeatherDisplay:10.37,2013-08-26 03:31:00,
2013-08-26 05:36:00,73.2,66.7,29.84,NE,49,1.2,0.0,80,0.00,SCT,,0.00,0.0,WeatherDisplay:10.37,2013-08-26 03:36:00,
2013-08-26 05:41:00,73.4,67.2,29.84,NNE,14,1.2,1.2,81,0.00,SCT,,0.00,0.0,WeatherDisplay:10.37,2013-08-26 03:41:00,
2013-08-26 05:46:00,73.7,67.5,29.84,North,355,2.3,2.3,81,0.00,SCT,,0.00,0.0,WeatherDisplay:10.37,2013-08-26 03:46:00,
2013-08-26 05:51:00,73.8,68.0,29.84,North,10,2.3,2.3,82,0.00,SCT,,0.00,0.0,WeatherDisplay:10.37,2013-08-26 03:51:00,
2013-08-26 05:56:00,73.8,68.0,29.84,NNE,33,1.2,1.2,82,0.00,SCT,,0.00,0.0,WeatherDisplay:10.37,2013-08-26 03:56:00,
2013-08-26 06:01:00,73.7,67.9,29.84,NE,43,0.0,0.0,82,0.00,SCT,,0.00,0.0,WeatherDisplay:10.37,2013-08-26 04:01:00,
2013-08-26 06:06:00,73.5,67.7,29.84,NE,34,1.2,0.0,82,0.00,SCT,,0.00,0.0,WeatherDisplay:10.37,2013-08-26 04:06:00,
2013-08-26 06:11:00,73.4,67.6,29.84,NNE,33,0.0,0.0,82,0.00,SCT,,0.00,0.0,WeatherDisplay:10.37,2013-08-26 04:11:00,
2013-08-26 06:16:00,73.4,67.6,29.84,ENE,61,0.0,0.0,82,0.00,SCT,,0.00,0.0,WeatherDisplay:10.37,2013-08-26 04:16:00,
2013-08-26 06:21:00,73.3,67.5,29.84,ESE,107,3.5,3.5,82,0.00,SCT,,0.00,0.0,WeatherDisplay:10.37,2013-08-26 04:21:00,
2013-08-26 06:26:00,72.9,67.1,29.84,NE,51,0.0,0.0,82,0.00,SCT,,0.00,0.0,WeatherDisplay:10.37,2013-08-26 04:26:00,
2013-08-26 06:31:00,72.6,66.8,29.85,East,88,0.0,0.1,82,0.00,SCT,,0.00,5.0,WeatherDisplay:10.37,2013-08-26 04:31:00,
2013-08-26 06:36:00,72.3,66.5,29.85,East,88,1.2,1.2,82,0.00,SCT,,0.00,9.0,WeatherDisplay:10.37,2013-08-26 04:36:00,
2013-08-26 06:41:00,72.2,66.4,29.85,ESE,109,0.0,0.0,82,0.00,SCT,,0.00,12.0,WeatherDisplay:10.37,2013-08-26 04:41:00,
2013-08-26 06:46:00,72.2,66.4,29.85,East,79,2.3,2.3,82,0.00,SCT,,0.00,16.0,WeatherDisplay:10.37,2013-08-26 04:46:00,
2013-08-26 06:51:00,72.0,66.2,29.85,NW,311,3.5,3.5,82,0.00,BKN,,0.00,19.0,WeatherDisplay:10.37,2013-08-26 04:51:00,
2013-08-26 06:56:00,71.9,66.1,29.85,East,85,3.5,3.5,82,0.00,BKN,,0.00,23.0,WeatherDisplay:10.37,2013-08-26 04:56:00,
2013-08-26 07:01:00,71.8,66.0,29.85,East,88,3.5,3.5,82,0.00,BKN,,0.00,40.0,WeatherDisplay:10.37,2013-08-26 05:01:00,
2013-08-26 07:06:00,71.9,66.1,29.85,ENE,65,2.3,2.3,82,0.00,SCT,,0.00,51.0,WeatherDisplay:10.37,2013-08-26 05:06:00,
2013-08-26 07:11:00,71.9,66.1,29.86,ENE,72,3.5,3.5,82,0.00,SCT,,0.00,67.0,WeatherDisplay:10.37,2013-08-26 05:11:00,
2013-08-26 07:16:00,72.1,66.3,29.86,WSW,249,1.2,1.2,82,0.00,SCT,,0.00,84.0,WeatherDisplay:10.37,2013-08-26 05:16:00,
2013-08-26 07:21:00,72.3,66.5,29.86,WSW,249,2.3,2.3,82,0.00,SCT,,0.00,98.0,WeatherDisplay:10.37,2013-08-26 05:21:00,
2013-08-26 07:26:00,72.6,66.8,29.86,NNE,30,1.2,0.0,82,0.00,FEW,,0.00,111.0,WeatherDisplay:10.37,2013-08-26 05:26:00,
2013-08-26 07:31:00,73.0,67.2,29.86,SSW,210,0.0,0.0,82,0.00,FEW,,0.00,128.0,WeatherDisplay:10.37,2013-08-26 05:31:00,
2013-08-26 07:36:00,73.3,67.5,29.86,NE,42,0.0,0.0,82,0.00,FEW,,0.00,146.0,WeatherDisplay:10.37,2013-08-26 05:36:00,
2013-08-26 07:41:00,73.7,67.9,29.86,NE,42,0.0,0.0,82,0.00,FEW,,0.00,165.0,WeatherDisplay:10.37,2013-08-26 05:41:00,
2013-08-26 07:46:00,74.1,67.9,29.87,NE,42,0.0,0.0,81,0.00,FEW,,0.00,179.0,WeatherDisplay:10.37,2013-08-26 05:46:00,
2013-08-26 07:51:00,74.6,68.0,29.87,East,93,0.0,0.0,80,0.00,CLR,,0.00,192.0,WeatherDisplay:10.37,2013-08-26 05:51:00,
2013-08-26 07:56:00,75.1,68.1,29.87,SW,221,1.2,0.0,79,0.00,CLR,,0.00,211.0,WeatherDisplay:10.37,2013-08-26 05:56:00,
2013-08-26 08:01:00,75.4,67.7,29.87,East,96,1.2,1.2,77,0.00,CLR,,0.00,221.0,WeatherDisplay:10.37,2013-08-26 06:01:00,
2013-08-26 08:06:00,75.8,68.1,29.87,East,101,2.3,2.3,77,0.00,CLR,,0.00,236.0,WeatherDisplay:10.37,2013-08-26 06:06:00,
2013-08-26 08:11:00,76.1,68.4,29.87,East,97,0.0,0.0,77,0.00,FEW,,0.00,258.0,WeatherDisplay:10.37,2013-08-26 06:11:00,
2013-08-26 08:16:00,76.3,68.2,29.87,SSE,148,1.2,1.2,76,0.00,FEW,,0.00,278.0,WeatherDisplay:10.37,2013-08-26 06:16:00,
2013-08-26 08:21:00,76.7,68.2,29.87,SSE,150,0.0,0.1,75,0.00,FEW,,0.00,288.0,WeatherDisplay:10.37,2013-08-26 06:21:00,
2013-08-26 08:26:00,77.1,68.2,29.87,SSE,150,0.0,0.0,74,0.00,FEW,,0.00,306.0,WeatherDisplay:10.37,2013-08-26 06:26:00,
2013-08-26 08:31:00,77.8,68.8,29.87,SSE,150,0.0,0.0,74,0.00,FEW,,0.00,323.0,WeatherDisplay:10.37,2013-08-26 06:31:00,
2013-08-26 08:36:00,78.3,68.9,29.87,SSE,149,1.2,0.0,73,0.00,FEW,,0.00,338.0,WeatherDisplay:10.37,2013-08-26 06:36:00,
2013-08-26 08:41:00,78.7,68.9,29.87,SSE,149,1.2,0.0,72,0.00,FEW,,0.00,353.0,WeatherDisplay:10.37,2013-08-26 06:41:00,
2013-08-26 08:46:00,79.2,69.8,29.87,SSE,149,0.0,0.0,73,0.00,FEW,,0.00,367.0,WeatherDisplay:10.37,2013-08-26 06:46:00,
2013-08-26 08:51:00,79.6,69.4,29.87,SSE,149,1.2,1.2,71,0.00,SCT,,0.00,387.0,WeatherDisplay:10.37,2013-08-26 06:51:00,
2013-08-26 08:56:00,79.8,69.1,29.88,South,173,1.2,0.0,70,0.00,SCT,,0.00,399.0,WeatherDisplay:10.37,2013-08-26 06:56:00,
2013-08-26 09:01:00,79.8,69.1,29.87,East,93,3.5,3.5,70,0.00,SCT,,0.00,413.0,WeatherDisplay:10.37,2013-08-26 07:01:00,
2013-08-26 09:06:00,79.3,68.7,29.87,ESE,111,2.3,2.3,70,0.00,SCT,,0.00,425.0,WeatherDisplay:10.37,2013-08-26 07:06:00,
2013-08-26 09:12:00,78.9,68.7,29.87,ESE,110,3.5,3.5,71,0.00,CLR,,0.00,439.0,WeatherDisplay:10.37,2013-08-26 07:12:00,
2013-08-26 09:17:00,78.5,68.3,29.87,SSE,153,2.3,2.3,71,0.00,CLR,,0.00,455.0,WeatherDisplay:10.37,2013-08-26 07:17:00,
2013-08-26 09:22:00,78.2,68.4,29.87,ESE,122,3.5,3.5,72,0.00,CLR,,0.00,469.0,WeatherDisplay:10.37,2013-08-26 07:22:00,
2013-08-26 09:27:00,78.3,68.5,29.88,ESE,115,1.2,1.2,72,0.00,CLR,,0.00,482.0,WeatherDisplay:10.37,2013-08-26 07:27:00,
2013-08-26 09:32:00,78.4,68.6,29.88,ESE,121,3.5,3.5,72,0.00,CLR,,0.00,490.0,WeatherDisplay:10.37,2013-08-26 07:32:00,
2013-08-26 09:37:00,78.3,68.5,29.88,SSE,153,2.3,2.3,72,0.00,CLR,,0.00,504.0,WeatherDisplay:10.37,2013-08-26 07:37:00,
2013-08-26 09:42:00,78.6,69.2,29.88,West,275,1.2,1.2,73,0.00,CLR,,0.00,520.0,WeatherDisplay:10.37,2013-08-26 07:42:00,
2013-08-26 09:47:00,78.8,69.4,29.88,SSW,211,3.0,3.0,73,0.00,CLR,,0.00,534.0,WeatherDisplay:10.37,2013-08-26 07:47:00,
2013-08-26 09:52:00,78.9,69.1,29.88,SW,220,3.5,3.5,72,0.00,CLR,,0.00,548.0,WeatherDisplay:10.37,2013-08-26 07:52:00,
2013-08-26 09:57:00,78.8,69.4,29.88,SW,234,3.5,3.5,73,0.00,CLR,,0.00,564.0,WeatherDisplay:10.37,2013-08-26 07:57:00,
2013-08-26 10:02:00,78.6,69.2,29.89,SSW,200,3.5,3.5,73,0.00,CLR,,0.00,578.0,WeatherDisplay:10.37,2013-08-26 08:02:00,
2013-08-26 10:07:00,78.2,69.2,29.89,SW,234,4.0,4.0,74,0.00,CLR,,0.00,589.0,WeatherDisplay:10.37,2013-08-26 08:07:00,
2013-08-26 10:12:00,77.9,69.3,29.89,South,178,5.8,5.8,75,0.00,CLR,,0.00,599.0,WeatherDisplay:10.37,2013-08-26 08:12:00,
2013-08-26 10:17:00,77.9,69.7,29.89,South,185,3.5,3.5,76,0.00,CLR,,0.00,612.0,WeatherDisplay:10.37,2013-08-26 08:17:00,
2013-08-26 10:22:00,77.9,69.3,29.89,SSW,209,5.8,5.8,75,0.00,CLR,,0.00,626.0,WeatherDisplay:10.37,2013-08-26 08:22:00,
2013-08-26 10:27:00,78.1,69.5,29.89,WSW,250,10.0,10.0,75,0.00,CLR,,0.00,631.0,WeatherDisplay:10.37,2013-08-26 08:27:00,
2013-08-26 10:32:00,78.1,69.5,29.89,WSW,240,8.1,8.1,75,0.00,CLR,,0.00,643.0,WeatherDisplay:10.37,2013-08-26 08:32:00,
2013-08-26 10:37:00,78.1,68.7,29.89,West,265,9.2,9.2,73,0.00,CLR,,0.00,652.0,WeatherDisplay:10.37,2013-08-26 08:37:00,
2013-08-26 10:42:00,77.9,68.5,29.89,West,277,6.9,6.9,73,0.00,CLR,,0.00,664.0,WeatherDisplay:10.37,2013-08-26 08:42:00,
2013-08-26 10:47:00,77.9,66.1,29.89,West,275,6.9,6.9,67,0.00,CLR,,0.00,673.0,WeatherDisplay:10.37,2013-08-26 08:47:00,
2013-08-26 10:52:00,78.2,67.2,29.89,West,269,9.2,9.2,69,0.00,CLR,,0.00,680.0,WeatherDisplay:10.37,2013-08-26 08:52:00,
2013-08-26 10:57:00,78.3,66.0,29.89,West,272,8.1,8.1,66,0.00,CLR,,0.00,686.0,WeatherDisplay:10.37,2013-08-26 08:57:00,
2013-08-26 11:02:00,78.5,64.4,29.89,WSW,242,6.9,6.9,62,0.00,FEW,,0.00,698.0,WeatherDisplay:10.37,2013-08-26 09:02:00,
2013-08-26 11:07:00,79.0,64.4,29.89,WNW,287,8.1,8.1,61,0.00,FEW,,0.00,707.0,WeatherDisplay:10.37,2013-08-26 09:07:00,
2013-08-26 11:12:00,79.2,64.6,29.89,WNW,287,5.8,5.8,61,0.00,FEW,,0.00,712.0,WeatherDisplay:10.37,2013-08-26 09:12:00,
2013-08-26 11:17:00,79.6,65.4,29.89,WSW,252,4.6,4.6,62,0.00,FEW,,0.00,722.0,WeatherDisplay:10.37,2013-08-26 09:17:00,
2013-08-26 11:22:00,79.8,64.2,29.89,SW,228,5.0,5.0,59,0.00,FEW,,0.00,724.0,WeatherDisplay:10.37,2013-08-26 09:22:00,
2013-08-26 11:27:00,80.8,64.1,29.89,North,355,3.5,3.5,57,0.00,FEW,,0.00,735.0,WeatherDisplay:10.37,2013-08-26 09:27:00,
2013-08-26 11:32:00,81.4,62.6,29.89,SW,232,8.0,8.0,53,0.00,FEW,,0.00,738.0,WeatherDisplay:10.37,2013-08-26 09:32:00,
2013-08-26 11:37:00,80.9,62.2,29.89,SSW,213,6.9,6.9,53,0.00,FEW,,0.00,742.0,WeatherDisplay:10.37,2013-08-26 09:37:00,
2013-08-26 11:42:00,80.1,61.4,29.89,WSW,244,9.2,9.2,53,0.00,FEW,,0.00,749.0,WeatherDisplay:10.37,2013-08-26 09:42:00,
2013-08-26 11:47:00,80.5,61.8,29.89,SSW,198,7.0,7.0,53,0.00,FEW,,0.00,752.0,WeatherDisplay:10.37,2013-08-26 09:47:00,
2013-08-26 11:52:00,80.7,62.0,29.88,South,170,4.6,4.6,53,0.00,FEW,,0.00,756.0,WeatherDisplay:10.37,2013-08-26 09:52:00,
2013-08-26 11:57:00,80.9,60.5,29.89,WSW,254,6.0,6.0,50,0.00,FEW,,0.00,759.0,WeatherDisplay:10.37,2013-08-26 09:57:00,
2013-08-26 12:02:00,81.3,60.9,29.89,SSW,207,6.0,6.0,50,0.00,FEW,,0.00,761.0,WeatherDisplay:10.37,2013-08-26 10:02:00,
2013-08-26 12:07:00,81.0,59.5,29.88,SSW,202,9.2,9.2,48,0.00,FEW,,0.00,766.0,WeatherDisplay:10.37,2013-08-26 10:07:00,
2013-08-26 12:12:00,81.2,60.8,29.88,SSW,206,8.1,8.1,50,0.00,FEW,,0.00,772.0,WeatherDisplay:10.37,2013-08-26 10:12:00,
2013-08-26 12:17:00,82.0,59.8,29.88,South,184,4.6,4.6,47,0.00,FEW,,0.00,773.0,WeatherDisplay:10.37,2013-08-26 10:17:00,
2013-08-26 12:22:00,82.1,58.7,29.88,SW,215,11.5,11.5,45,0.00,FEW,,0.00,779.0,WeatherDisplay:10.37,2013-08-26 10:22:00,
2013-08-26 12:27:00,82.4,60.7,29.89,NNE,13,6.9,6.9,48,0.00,FEW,,0.00,779.0,WeatherDisplay:10.37,2013-08-26 10:27:00,
2013-08-26 12:32:00,82.7,61.6,29.89,SSW,207,8.1,8.1,49,0.00,FEW,,0.00,780.0,WeatherDisplay:10.37,2013-08-26 10:32:00,
2013-08-26 12:37:00,82.5,62.0,29.89,West,263,11.0,11.0,50,0.00,FEW,,0.00,786.0,WeatherDisplay:10.37,2013-08-26 10:37:00,
2013-08-26 12:42:00,81.9,62.0,29.89,WSW,254,10.4,10.4,51,0.00,FEW,,0.00,782.0,WeatherDisplay:10.37,2013-08-26 10:42:00,
2013-08-26 12:47:00,80.9,64.7,29.89,WSW,253,12.0,12.0,58,0.00,FEW,,0.00,780.0,WeatherDisplay:10.37,2013-08-26 10:47:00,
2013-08-26 12:52:00,80.6,65.9,29.90,North,350,18.4,18.4,61,0.00,FEW,,0.00,780.0,WeatherDisplay:10.37,2013-08-26 10:52:00,
2013-08-26 12:57:00,80.0,67.2,29.90,SW,234,16.1,16.1,65,0.00,FEW,,0.00,779.0,WeatherDisplay:10.37,2013-08-26 10:57:00,
2013-08-26 13:02:00,79.7,68.2,29.90,SW,236,16.1,16.1,68,0.00,FEW,,0.00,777.0,WeatherDisplay:10.37,2013-08-26 11:02:00,
2013-08-26 13:07:00,79.2,69.0,29.90,WSW,244,16.1,16.1,71,0.00,FEW,,0.00,775.0,WeatherDisplay:10.37,2013-08-26 11:07:00,
2013-08-26 13:12:00,79.1,69.3,29.90,West,265,17.3,17.3,72,0.00,FEW,,0.00,795.0,WeatherDisplay:10.37,2013-08-26 11:12:00,
2013-08-26 13:17:00,79.1,70.1,29.90,WSW,251,15.0,15.0,74,0.00,FEW,,0.00,802.0,WeatherDisplay:10.37,2013-08-26 11:17:00,
2013-08-26 13:22:00,79.7,70.7,29.90,WSW,247,17.3,17.3,74,0.00,FEW,,0.00,782.0,WeatherDisplay:10.37,2013-08-26 11:22:00,
2013-08-26 13:27:00,80.1,70.7,29.90,WSW,242,15.0,15.0,73,0.00,FEW,,0.00,763.0,WeatherDisplay:10.37,2013-08-26 11:27:00,
2013-08-26 13:32:00,79.8,70.8,29.90,WSW,252,14.0,14.0,74,0.00,FEW,,0.00,770.0,WeatherDisplay:10.37,2013-08-26 11:32:00,
2013-08-26 13:37:00,79.6,69.8,29.90,SW,236,16.0,16.0,72,0.00,FEW,,0.00,765.0,WeatherDisplay:10.37,2013-08-26 11:37:00,
2013-08-26 13:42:00,79.3,69.5,29.90,WSW,251,16.1,16.1,72,0.00,FEW,,0.00,777.0,WeatherDisplay:10.37,2013-08-26 11:42:00,
2013-08-26 13:47:00,79.6,69.8,29.90,WSW,250,17.3,17.3,72,0.00,FEW,,0.00,773.0,WeatherDisplay:10.37,2013-08-26 11:47:00,
2013-08-26 13:52:00,79.4,69.2,29.90,SW,221,15.0,15.0,71,0.00,FEW,,0.00,791.0,WeatherDisplay:10.37,2013-08-26 11:52:00,
2013-08-26 13:57:00,79.8,69.6,29.89,West,259,12.7,12.7,71,0.00,FEW,,0.00,773.0,WeatherDisplay:10.37,2013-08-26 11:57:00,
2013-08-26 14:02:00,79.9,70.1,29.89,WSW,248,11.5,11.5,72,0.00,FEW,,0.00,749.0,WeatherDisplay:10.37,2013-08-26 12:02:00,
2013-08-26 14:07:00,80.4,70.5,29.89,WNW,290,11.5,11.5,72,0.00,FEW,,0.00,733.0,WeatherDisplay:10.37,2013-08-26 12:07:00,
2013-08-26 14:12:00,80.7,69.6,29.89,West,271,15.0,15.0,69,0.00,FEW,,0.00,745.0,WeatherDisplay:10.37,2013-08-26 12:12:00,
2013-08-26 14:17:00,80.5,68.5,29.89,West,280,12.0,12.0,67,0.00,FEW,,0.00,747.0,WeatherDisplay:10.37,2013-08-26 12:17:00,
2013-08-26 14:22:00,80.3,68.8,29.89,WSW,250,13.8,13.8,68,0.00,FEW,,0.00,360.0,WeatherDisplay:10.37,2013-08-26 12:22:00,
2013-08-26 14:27:00,80.0,69.7,29.89,SW,234,11.5,11.5,71,0.00,SCT,,0.00,485.0,WeatherDisplay:10.37,2013-08-26 12:27:00,
2013-08-26 14:32:00,80.7,70.4,29.89,West,259,11.0,11.0,71,0.00,SCT,,0.00,809.0,WeatherDisplay:10.37,2013-08-26 12:32:00,
2013-08-26 14:37:00,81.0,69.4,29.88,SSE,163,10.4,10.4,68,0.00,FEW,,0.00,751.0,WeatherDisplay:10.37,2013-08-26 12:37:00,
2013-08-26 14:42:00,80.9,68.9,29.89,WSW,251,9.2,9.2,67,0.00,CLR,,0.00,742.0,WeatherDisplay:10.37,2013-08-26 12:42:00,
2013-08-26 14:47:00,80.8,67.9,29.89,WSW,238,15.0,15.0,65,0.00,FEW,,0.00,724.0,WeatherDisplay:10.37,2013-08-26 12:47:00,
2013-08-26 14:52:00,80.7,69.2,29.89,WSW,255,15.0,15.0,68,0.00,FEW,,0.00,745.0,WeatherDisplay:10.37,2013-08-26 12:52:00,
2013-08-26 14:57:00,80.4,68.9,29.89,WSW,247,13.8,13.8,68,0.00,FEW,,0.00,617.0,WeatherDisplay:10.37,2013-08-26 12:57:00,
2013-08-26 15:03:00,80.6,70.3,29.89,South,186,11.5,11.5,71,0.00,FEW,,0.00,717.0,WeatherDisplay:10.37,2013-08-26 13:03:00,
2013-08-26 15:08:00,80.7,70.0,29.89,West,269,13.8,13.8,70,0.00,FEW,,0.00,596.0,WeatherDisplay:10.37,2013-08-26 13:08:00,
2013-08-26 15:13:00,80.2,70.4,29.89,West,269,16.1,16.1,72,0.00,FEW,,0.00,529.0,WeatherDisplay:10.37,2013-08-26 13:13:00,
2013-08-26 15:18:00,80.3,69.6,29.89,West,273,15.0,15.0,70,0.00,FEW,,0.00,635.0,WeatherDisplay:10.37,2013-08-26 13:18:00,
2013-08-26 15:23:00,80.3,69.2,29.89,West,270,12.0,12.0,69,0.00,FEW,,0.00,543.0,WeatherDisplay:10.37,2013-08-26 13:23:00,
2013-08-26 15:28:00,80.7,69.6,29.88,WNW,287,11.5,11.5,69,0.00,FEW,,0.00,684.0,WeatherDisplay:10.37,2013-08-26 13:28:00,
2013-08-26 15:33:00,80.6,68.2,29.88,South,186,11.5,11.5,66,0.00,FEW,,0.00,763.0,WeatherDisplay:10.37,2013-08-26 13:33:00,
2013-08-26 15:38:00,81.5,69.0,29.88,WSW,246,8.0,8.0,66,0.00,FEW,,0.00,707.0,WeatherDisplay:10.37,2013-08-26 13:38:00,
2013-08-26 15:43:00,82.0,68.6,29.88,WSW,249,12.7,12.7,64,0.00,FEW,,0.00,707.0,WeatherDisplay:10.37,2013-08-26 13:43:00,
2013-08-26 15:48:00,81.1,68.2,29.89,WSW,238,13.8,13.8,65,0.00,FEW,,0.00,633.0,WeatherDisplay:10.37,2013-08-26 13:48:00,
2013-08-26 15:53:00,80.8,67.9,29.89,West,266,17.3,17.3,65,0.00,SCT,,0.00,596.0,WeatherDisplay:10.37,2013-08-26 13:53:00,
2013-08-26 15:58:00,80.9,68.5,29.88,West,267,15.0,15.0,66,0.00,SCT,,0.00,570.0,WeatherDisplay:10.37,2013-08-26 13:58:00,
2013-08-26 16:03:00,80.8,67.0,29.88,West,276,18.4,18.4,63,0.00,SCT,,0.00,557.0,WeatherDisplay:10.37,2013-08-26 14:03:00,
2013-08-26 16:08:00,80.9,68.5,29.88,WSW,250,13.8,13.8,66,0.00,SCT,,0.00,555.0,WeatherDisplay:10.37,2013-08-26 14:08:00,
2013-08-26 16:13:00,81.2,68.3,29.89,West,263,13.8,13.8,65,0.00,SCT,,0.00,554.0,WeatherDisplay:10.37,2013-08-26 14:13:00,
2013-08-26 16:18:00,81.6,67.8,29.88,WNW,282,13.8,13.8,63,0.00,SCT,,0.00,513.0,WeatherDisplay:10.37,2013-08-26 14:18:00,
2013-08-26 16:23:00,81.2,68.3,29.88,West,273,10.4,10.4,65,0.00,SCT,,0.00,497.0,WeatherDisplay:10.37,2013-08-26 14:23:00,
2013-08-26 16:28:00,82.1,68.7,29.88,East,100,10.4,10.4,64,0.00,SCT,,0.00,478.0,WeatherDisplay:10.37,2013-08-26 14:28:00,
2013-08-26 16:33:00,81.7,68.8,29.88,WSW,258,12.7,12.7,65,0.00,SCT,,0.00,469.0,WeatherDisplay:10.37,2013-08-26 14:33:00,
2013-08-26 16:38:00,81.4,68.5,29.88,SSW,196,12.7,12.7,65,0.00,SCT,,0.00,457.0,WeatherDisplay:10.37,2013-08-26 14:38:00,
2013-08-26 16:43:00,81.3,68.4,29.87,WNW,302,10.4,10.4,65,0.00,SCT,,0.00,443.0,WeatherDisplay:10.37,2013-08-26 14:43:00,
2013-08-26 16:48:00,80.9,68.0,29.87,WSW,248,11.5,11.5,65,0.00,SCT,,0.00,320.0,WeatherDisplay:10.37,2013-08-26 14:48:00,
2013-08-26 16:53:00,81.2,68.3,29.87,WNW,299,9.2,9.2,65,0.00,FEW,,0.00,443.0,WeatherDisplay:10.37,2013-08-26 14:53:00,
2013-08-26 16:58:00,80.8,67.5,29.87,WNW,283,9.2,9.2,64,0.00,FEW,,0.00,427.0,WeatherDisplay:10.37,2013-08-26 14:58:00,
2013-08-26 17:03:00,81.5,69.0,29.87,West,272,8.1,8.1,66,0.00,FEW,,0.00,334.0,WeatherDisplay:10.37,2013-08-26 15:03:00,
2013-08-26 17:08:00,81.2,68.3,29.87,South,186,10.4,10.4,65,0.00,FEW,,0.00,167.0,WeatherDisplay:10.37,2013-08-26 15:08:00,
2013-08-26 17:13:00,80.8,68.8,29.87,West,272,12.7,12.7,67,0.00,FEW,,0.00,176.0,WeatherDisplay:10.37,2013-08-26 15:13:00,
2013-08-26 17:18:00,80.8,69.2,29.87,WSW,243,11.5,11.5,68,0.00,FEW,,0.00,234.0,WeatherDisplay:10.37,2013-08-26 15:18:00,
2013-08-26 17:23:00,80.8,69.7,29.87,West,260,12.0,12.0,69,0.00,FEW,,0.00,367.0,WeatherDisplay:10.37,2013-08-26 15:23:00,
2013-08-26 17:28:00,80.4,69.3,29.87,West,261,12.7,12.7,69,0.00,FEW,,0.00,260.0,WeatherDisplay:10.37,2013-08-26 15:28:00,
2013-08-26 17:33:00,80.3,69.6,29.87,WSW,241,10.4,10.4,70,0.00,FEW,,0.00,313.0,WeatherDisplay:10.37,2013-08-26 15:33:00,
2013-08-26 17:38:00,80.5,69.8,29.87,SW,234,11.5,11.5,70,0.00,FEW,,0.00,297.0,WeatherDisplay:10.37,2013-08-26 15:38:00,
2013-08-26 17:43:00,80.5,69.4,29.87,West,277,10.4,10.4,69,0.00,FEW,,0.00,279.0,WeatherDisplay:10.37,2013-08-26 15:43:00,
2013-08-26 17:48:00,80.4,69.7,29.87,SSW,204,11.5,11.5,70,0.00,FEW,,0.00,262.0,WeatherDisplay:10.37,2013-08-26 15:48:00,
2013-08-26 17:53:00,80.7,69.6,29.87,WSW,252,9.2,9.2,69,0.00,FEW,,0.00,246.0,WeatherDisplay:10.37,2013-08-26 15:53:00,
2013-08-26 17:58:00,80.7,69.6,29.87,SW,227,5.0,5.0,69,0.00,FEW,,0.00,241.0,WeatherDisplay:10.37,2013-08-26 15:58:00,
2013-08-26 18:03:00,80.6,69.5,29.87,West,271,11.5,11.5,69,0.00,FEW,,0.00,225.0,WeatherDisplay:10.37,2013-08-26 16:03:00,
2013-08-26 18:08:00,80.3,69.6,29.87,West,265,9.2,9.2,70,0.00,FEW,,0.00,209.0,WeatherDisplay:10.37,2013-08-26 16:08:00,
2013-08-26 18:13:00,80.2,69.1,29.87,WNW,293,8.1,8.1,69,0.00,FEW,,0.00,193.0,WeatherDisplay:10.37,2013-08-26 16:13:00,
2013-08-26 18:18:00,80.4,69.7,29.87,West,264,8.1,8.1,70,0.00,FEW,,0.00,176.0,WeatherDisplay:10.37,2013-08-26 16:18:00,
2013-08-26 18:23:00,80.3,69.6,29.88,WSW,244,11.0,11.0,70,0.00,FEW,,0.00,158.0,WeatherDisplay:10.37,2013-08-26 16:23:00,
2013-08-26 18:28:00,79.6,69.4,29.87,SW,233,11.5,11.5,71,0.00,FEW,,0.00,146.0,WeatherDisplay:10.37,2013-08-26 16:28:00,
2013-08-26 18:33:00,79.6,69.8,29.87,West,276,11.5,11.5,72,0.00,FEW,,0.00,132.0,WeatherDisplay:10.37,2013-08-26 16:33:00,
2013-08-26 18:38:00,79.5,69.7,29.87,NW,306,10.4,10.4,72,0.00,FEW,,0.00,120.0,WeatherDisplay:10.37,2013-08-26 16:38:00,
2013-08-26 18:43:00,79.4,69.6,29.87,West,277,8.1,8.1,72,0.00,FEW,,0.00,105.0,WeatherDisplay:10.37,2013-08-26 16:43:00,
2013-08-26 18:48:00,79.5,69.7,29.87,West,264,11.5,11.5,72,0.00,FEW,,0.00,93.0,WeatherDisplay:10.37,2013-08-26 16:48:00,
2013-08-26 18:53:00,79.5,70.1,29.87,West,262,9.2,9.2,73,0.00,FEW,,0.00,81.0,WeatherDisplay:10.37,2013-08-26 16:53:00,
2013-08-26 18:58:00,79.6,70.2,29.87,WNW,287,8.1,8.1,73,0.00,FEW,,0.00,69.0,WeatherDisplay:10.37,2013-08-26 16:58:00,
2013-08-26 19:03:00,79.3,69.9,29.86,WSW,250,6.9,6.9,73,0.00,FEW,,0.00,58.0,WeatherDisplay:10.37,2013-08-26 17:03:00,
2013-08-26 19:08:00,79.3,70.3,29.86,West,272,5.0,5.0,74,0.00,FEW,,0.00,40.0,WeatherDisplay:10.37,2013-08-26 17:08:00,
2013-08-26 19:13:00,79.2,69.8,29.86,WNW,294,3.5,3.5,73,0.00,BKN,,0.00,30.0,WeatherDisplay:10.37,2013-08-26 17:13:00,
2013-08-26 19:18:00,79.2,69.4,29.87,NW,320,6.0,6.0,72,0.00,BKN,,0.00,23.0,WeatherDisplay:10.37,2013-08-26 17:18:00,
2013-08-26 19:23:00,79.1,69.7,29.87,WNW,296,6.0,6.0,73,0.00,BKN,,0.00,18.0,WeatherDisplay:10.37,2013-08-26 17:23:00,
2013-08-26 19:28:00,79.0,69.6,29.87,WNW,303,8.1,8.1,73,0.00,BKN,,0.00,14.0,WeatherDisplay:10.37,2013-08-26 17:28:00,
2013-08-26 19:33:00,78.9,69.9,29.87,NW,323,8.1,8.1,74,0.00,BKN,,0.00,9.0,WeatherDisplay:10.37,2013-08-26 17:33:00,
2013-08-26 19:38:00,78.7,69.7,29.87,NNW,340,8.1,8.1,74,0.00,BKN,,0.00,0.0,WeatherDisplay:10.37,2013-08-26 17:38:00,
2013-08-26 19:43:00,78.7,69.7,29.86,NW,308,8.1,8.1,74,0.00,,,0.00,0.0,WeatherDisplay:10.37,2013-08-26 17:43:00,
2013-08-26 19:48:00,78.6,69.6,29.86,NNW,342,6.9,6.9,74,0.00,,,0.00,0.0,WeatherDisplay:10.37,2013-08-26 17:48:00,
2013-08-26 19:53:00,78.6,70.0,29.86,NNW,336,4.0,4.0,75,0.00,,,0.00,0.0,WeatherDisplay:10.37,2013-08-26 17:53:00,
2013-08-26 19:58:00,78.6,70.0,29.86,NE,42,2.0,2.0,75,0.00,,,0.00,0.0,WeatherDisplay:10.37,2013-08-26 17:58:00,
2013-08-26 20:03:00,78.5,69.5,29.86,NNW,333,5.8,5.8,74,0.00,,,0.00,0.0,WeatherDisplay:10.37,2013-08-26 18:03:00,
2013-08-26 20:08:00,78.4,69.8,29.86,NNW,348,1.2,0.0,75,0.00,,,0.00,0.0,WeatherDisplay:10.37,2013-08-26 18:08:00,
2013-08-26 20:13:00,78.3,69.3,29.86,NNW,348,1.2,1.2,74,0.00,,,0.00,0.0,WeatherDisplay:10.37,2013-08-26 18:13:00,
2013-08-26 20:18:00,78.2,69.2,29.87,NNW,348,0.0,0.0,74,0.00,,,0.00,0.0,WeatherDisplay:10.37,2013-08-26 18:18:00,
2013-08-26 20:23:00,78.2,69.2,29.87,NNW,348,0.0,0.0,74,0.00,,,0.00,0.0,WeatherDisplay:10.37,2013-08-26 18:23:00,
2013-08-26 20:28:00,78.2,68.8,29.87,NNW,348,0.0,0.0,73,0.00,,,0.00,0.0,WeatherDisplay:10.37,2013-08-26 18:28:00,
2013-08-26 20:33:00,78.1,68.3,29.87,NNW,348,1.2,1.2,72,0.00,,,0.00,0.0,WeatherDisplay:10.37,2013-08-26 18:33:00,
2013-08-26 20:38:00,77.9,67.7,29.87,East,97,3.5,3.5,71,0.00,,,0.00,0.0,WeatherDisplay:10.37,2013-08-26 18:38:00,
2013-08-26 20:43:00,77.8,67.6,29.87,East,94,1.2,1.2,71,0.00,,,0.00,0.0,WeatherDisplay:10.37,2013-08-26 18:43:00,
2013-08-26 20:48:00,77.6,67.9,29.87,East,96,2.3,2.3,72,0.00,,,0.00,0.0,WeatherDisplay:10.37,2013-08-26 18:48:00,
2013-08-26 20:54:00,77.5,67.8,29.87,ESE,117,3.5,3.5,72,0.00,FEW,,0.00,0.0,WeatherDisplay:10.37,2013-08-26 18:54:00,
2013-08-26 20:59:00,77.5,67.4,29.87,ESE,105,1.2,1.2,71,0.00,FEW,,0.00,0.0,WeatherDisplay:10.37,2013-08-26 18:59:00,
2013-08-26 21:04:00,77.6,67.4,29.87,East,99,2.3,2.3,71,0.00,FEW,,0.00,0.0,WeatherDisplay:10.37,2013-08-26 19:04:00,
2013-08-26 21:09:00,77.6,67.4,29.88,East,96,1.2,1.2,71,0.00,FEW,,0.00,0.0,WeatherDisplay:10.37,2013-08-26 19:09:00,
2013-08-26 21:14:00,77.7,67.5,29.88,ENE,70,1.2,1.2,71,0.00,FEW,,0.00,0.0,WeatherDisplay:10.37,2013-08-26 19:14:00,
2013-08-26 21:19:00,77.6,67.0,29.88,ENE,63,0.0,0.0,70,0.00,FEW,,0.00,0.0,WeatherDisplay:10.37,2013-08-26 19:19:00,
2013-08-26 21:24:00,77.6,67.0,29.88,ENE,63,0.0,0.0,70,0.00,FEW,,0.00,0.0,WeatherDisplay:10.37,2013-08-26 19:24:00,
2013-08-26 21:29:00,77.5,67.4,29.88,ENE,68,0.0,0.0,71,0.00,FEW,,0.00,0.0,WeatherDisplay:10.37,2013-08-26 19:29:00,
2013-08-26 21:34:00,77.5,67.4,29.88,ENE,69,1.2,1.2,71,0.00,FEW,,0.00,0.0,WeatherDisplay:10.37,2013-08-26 19:34:00,
2013-08-26 21:39:00,77.4,67.3,29.88,ENE,69,1.2,1.2,71,0.00,FEW,,0.00,0.0,WeatherDisplay:10.37,2013-08-26 19:39:00,
2013-08-26 21:44:00,77.3,67.2,29.88,North,5,1.2,1.2,71,0.00,FEW,,0.00,0.0,WeatherDisplay:10.37,2013-08-26 19:44:00,
2013-08-26 21:49:00,77.1,66.6,29.88,North,5,0.0,0.0,70,0.00,FEW,,0.00,0.0,WeatherDisplay:10.37,2013-08-26 19:49:00,
2013-08-26 21:54:00,77.1,66.6,29.88,North,5,0.0,0.0,70,0.00,FEW,,0.00,0.0,WeatherDisplay:10.37,2013-08-26 19:54:00,
2013-08-26 21:59:00,77.0,66.0,29.87,North,5,0.0,0.0,69,0.00,FEW,,0.00,0.0,WeatherDisplay:10.37,2013-08-26 19:59:00,
2013-08-26 22:04:00,77.0,66.5,29.87,North,5,0.0,0.0,70,0.00,FEW,,0.00,0.0,WeatherDisplay:10.37,2013-08-26 20:04:00,
2013-08-26 22:09:00,77.1,66.6,29.88,North,5,0.0,0.0,70,0.00,FEW,,0.00,0.0,WeatherDisplay:10.37,2013-08-26 20:09:00,
2013-08-26 22:14:00,77.1,66.6,29.88,ESE,118,1.2,1.2,70,0.00,FEW,,0.00,0.0,WeatherDisplay:10.37,2013-08-26 20:14:00,
2013-08-26 22:19:00,77.1,67.0,29.87,ESE,119,3.0,3.0,71,0.00,FEW,,0.00,0.0,WeatherDisplay:10.37,2013-08-26 20:19:00,
2013-08-26 22:24:00,76.7,66.6,29.86,East,82,1.2,1.2,71,0.00,FEW,,0.00,0.0,WeatherDisplay:10.37,2013-08-26 20:24:00,
2013-08-26 22:29:00,76.4,66.7,29.87,NNW,340,1.2,1.2,72,0.00,FEW,,0.00,0.0,WeatherDisplay:10.37,2013-08-26 20:29:00,
2013-08-26 22:34:00,76.2,66.5,29.87,North,355,1.2,0.0,72,0.00,FEW,,0.00,0.0,WeatherDisplay:10.37,2013-08-26 20:34:00,
2013-08-26 22:39:00,75.8,65.3,29.87,North,355,1.2,1.2,70,0.00,FEW,,0.00,0.0,WeatherDisplay:10.37,2013-08-26 20:39:00,
2013-08-26 22:44:00,75.8,65.3,29.88,North,355,0.0,0.0,70,0.00,FEW,,0.00,0.0,WeatherDisplay:10.37,2013-08-26 20:44:00,
2013-08-26 22:49:00,75.9,65.4,29.88,North,355,0.0,0.0,70,0.00,FEW,,0.00,0.0,WeatherDisplay:10.37,2013-08-26 20:49:00,
2013-08-26 22:54:00,75.9,65.4,29.87,North,355,2.3,2.3,70,0.00,FEW,,0.00,0.0,WeatherDisplay:10.37,2013-08-26 20:54:00,
2013-08-26 22:59:00,75.8,65.3,29.87,NNW,343,0.0,0.0,70,0.00,FEW,,0.00,0.0,WeatherDisplay:10.37,2013-08-26 20:59:00,
2013-08-26 23:04:00,75.8,65.7,29.87,NNW,344,0.0,0.0,71,0.00,FEW,,0.00,0.0,WeatherDisplay:10.37,2013-08-26 21:04:00,
2013-08-26 23:09:00,75.8,65.7,29.86,NNW,331,0.0,0.0,71,0.00,FEW,,0.00,0.0,WeatherDisplay:10.37,2013-08-26 21:09:00,
2013-08-26 23:14:00,75.7,66.0,29.86,NNW,331,0.0,0.0,72,0.00,FEW,,0.00,0.0,WeatherDisplay:10.37,2013-08-26 21:14:00,
2013-08-26 23:19:00,75.8,66.1,29.86,NNW,345,2.3,2.3,72,0.00,FEW,,0.00,0.0,WeatherDisplay:10.37,2013-08-26 21:19:00,
2013-08-26 23:24:00,75.8,66.5,29.86,ENE,78,1.2,1.2,73,0.00,FEW,,0.00,0.0,WeatherDisplay:10.37,2013-08-26 21:24:00,
2013-08-26 23:29:00,75.7,66.4,29.86,ESE,107,3.5,3.5,73,0.00,FEW,,0.00,0.0,WeatherDisplay:10.37,2013-08-26 21:29:00,
2013-08-26 23:34:00,75.6,66.7,29.86,ENE,77,1.2,0.0,74,0.00,FEW,,0.00,0.0,WeatherDisplay:10.37,2013-08-26 21:34:00,
2013-08-26 23:39:00,75.5,66.6,29.86,NE,41,0.0,0.0,74,0.00,FEW,,0.00,0.0,WeatherDisplay:10.37,2013-08-26 21:39:00,
2013-08-26 23:44:00,75.5,66.6,29.86,WSW,244,1.2,0.0,74,0.00,FEW,,0.00,0.0,WeatherDisplay:10.37,2013-08-26 21:44:00,
2013-08-26 23:49:00,75.3,66.4,29.86,NE,42,3.5,3.5,74,0.00,FEW,,0.00,0.0,WeatherDisplay:10.37,2013-08-26 21:49:00,
2013-08-26 23:54:00,75.1,66.2,29.86,ENE,77,3.5,3.5,74,0.00,FEW,,0.00,0.0,WeatherDisplay:10.37,2013-08-26 21:54:00,
2013-08-26 23:59:00,74.8,66.0,29.86,NE,51,2.3,2.3,74,0.00,FEW,,0.00,0.0,WeatherDisplay:10.37,2013-08-26 21:59:00,